START_TIME,STEP,MOV.,M35,t_acc.,PL05,t_acc.,PL06,t_acc.,PL07,t_acc.
1981-08-29 06:00:24.540 ,0,0,0,4.8,2,4.8,0,4.8,0,4.8
1981-08-29 06:00:29.340 ,0,0,0,4.8,0,4.8,1,4.8,1,4.8
1981-08-29 06:00:34.140 ,0,0,0,4.8,2,4.8,2,4.8,0,4.8
1981-08-29 06:00:38.940 ,0,0,0,4.8,0,4.8,0,4.8,0,4.8
1981-08-29 06:00:43.740 ,0,0,0,4.8,1,4.8,1,4.8,0,4.8
1981-08-29 06:00:48.540 ,1,0,0,4.8,2,4.8,0,4.8,1,4.8
1981-08-29 06:00:53.340 ,1,0,0,4.8,1,4.8,0,4.8,0,4.8
1981-08-29 06:00:58.140 ,1,0,0,4.8,3,4.8,1,4.8,0,4.8
1981-08-29 06:01:02.940 ,1,0,0,4.8,2,4.8,1,4.8,0,4.8
1981-08-29 06:01:07.740 ,1,0,0,4.8,1,4.8,0,4.8,0,4.8
1981-08-29 06:01:12.540 ,1,0,0,4.8,1,4.8,0,4.8,0,4.8
1981-08-29 06:01:17.340 ,1,0,0,4.8,1,4.8,0,4.8,0,4.8
1981-08-29 06:01:22.140 ,1,0,0,4.8,1,4.8,0,4.8,0,4.8
1981-08-29 06:01:26.940 ,1,0,0,4.8,2,4.8,1,4.8,1,4.8
1981-08-29 06:01:31.740 ,1,0,0,4.8,0,4.8,0,4.8,0,4.8
1981-08-29 06:01:36.540 ,2,0,0,4.8,1,4.8,0,4.8,0,4.8
1981-08-29 06:01:41.340 ,2,0,0,4.8,0,4.8,1,4.8,0,4.8
1981-08-29 06:01:46.140 ,2,0,0,4.8,0,4.8,0,4.8,1,4.8
1981-08-29 06:01:50.940 ,2,0,0,4.8,0,4.8,1,4.8,0,4.8
1981-08-29 06:01:55.740 ,2,0,0,4.8,1,4.8,0,4.8,0,4.8
1981-08-29 06:02:00.540 ,2,0,0,4.8,0,4.8,0,4.8,0,4.8
1981-08-29 06:02:05.340 ,2,0,0,4.8,2,4.8,1,4.8,1,4.8
1981-08-29 06:02:10.140 ,2,0,0,4.8,2,4.8,0,4.8,0,4.8
1981-08-29 06:02:14.940 ,2,0,0,4.8,1,4.8,0,4.8,0,4.8
1981-08-29 06:02:19.740 ,2,0,0,4.8,1,4.8,0,4.8,2,4.8
1981-08-29 06:02:24.540 ,3,0,0,4.8,2,4.8,1,4.8,0,4.8
1981-08-29 06:02:29.340 ,3,0,0,4.8,0,4.8,1,4.8,0,4.8
1981-08-29 06:02:34.140 ,3,0,0,4.8,1,4.8,2,4.8,0,4.8
1981-08-29 06:02:38.940 ,3,0,0,4.8,1,4.8,0,4.8,0,4.8
1981-08-29 06:02:43.740 ,3,0,0,4.8,0,4.8,0,4.8,0,4.8
1981-08-29 06:02:48.540 ,3,0,0,4.8,0,4.8,0,4.8,0,4.8
1981-08-29 06:02:53.340 ,3,0,0,4.8,2,4.8,1,4.8,0,4.8
1981-08-29 06:02:58.140 ,3,0,0,4.8,0,4.8,0,4.8,0,4.8
1981-08-29 06:03:02.940 ,3,0,0,4.8,1,4.8,0,4.8,0,4.8
1981-08-29 06:03:07.740 ,3,0,0,4.8,4,4.8,0,4.8,1,4.8
1981-08-29 06:03:12.540 ,4,0,0,4.8,1,4.8,0,4.8,2,4.8
1981-08-29 06:03:17.340 ,4,0,0,4.8,0,4.8,0,4.8,0,4.8
1981-08-29 06:03:22.140 ,4,0,0,4.8,1,4.8,0,4.8,0,4.8
1981-08-29 06:03:26.940 ,4,0,0,4.8,2,4.8,0,4.8,0,4.8
1981-08-29 06:03:31.740 ,4,0,0,4.8,2,4.8,1,4.8,1,4.8
1981-08-29 06:03:36.540 ,4,0,0,4.8,1,4.8,0,4.8,0,4.8
1981-08-29 06:03:41.340 ,4,0,0,4.8,1,4.8,0,4.8,0,4.8
1981-08-29 06:03:46.140 ,4,0,0,4.8,1,4.8,1,4.8,0,4.8
1981-08-29 06:03:50.940 ,4,0,0,4.8,1,4.8,0,4.8,0,4.8
1981-08-29 06:03:55.740 ,4,0,0,4.8,1,4.8,1,4.8,0,4.8
1981-08-29 06:04:00.540 ,5,0,0,4.8,2,4.8,1,4.8,0,4.8
1981-08-29 06:04:05.340 ,5,0,0,4.8,2,4.8,0,4.8,0,4.8
1981-08-29 06:04:10.140 ,5,0,0,4.8,1,4.8,0,4.8,0,4.8
1981-08-29 06:04:14.940 ,5,0,0,4.8,1,4.8,0,4.8,0,4.8
1981-08-29 06:04:19.740 ,5,0,0,4.8,0,4.8,0,4.8,0,4.8
1981-08-29 06:04:24.540 ,5,0,0,4.8,2,4.8,0,4.8,0,4.8
1981-08-29 06:04:29.340 ,5,0,0,4.8,0,4.8,0,4.8,0,4.8
1981-08-29 06:04:34.140 ,5,0,0,4.8,1,4.8,0,4.8,0,4.8
1981-08-29 06:04:38.940 ,5,0,0,4.8,0,4.8,0,4.8,1,4.8
1981-08-29 06:04:43.740 ,5,0,0,4.8,1,4.8,0,4.8,0,4.8
1981-08-29 06:04:48.540 ,6,0,0,4.8,1,4.8,0,4.8,2,4.8
1981-08-29 06:04:53.340 ,6,0,0,4.8,1,4.8,0,4.8,0,4.8
1981-08-29 06:04:58.140 ,6,0,0,4.8,1,4.8,0,4.8,0,4.8
1981-08-29 06:05:02.940 ,6,0,0,4.8,1,4.8,1,4.8,1,4.8
1981-08-29 06:05:07.740 ,6,0,0,4.8,2,4.8,0,4.8,1,4.8
1981-08-29 06:05:12.540 ,6,0,0,4.8,1,4.8,0,4.8,0,4.8
1981-08-29 06:05:17.340 ,6,0,0,4.8,1,4.8,0,4.8,0,4.8
1981-08-29 06:05:22.140 ,6,0,0,4.8,1,4.8,0,4.8,0,4.8
1981-08-29 06:05:26.940 ,6,0,0,4.8,1,4.8,3,4.8,0,4.8
1981-08-29 06:05:31.740 ,6,0,0,4.8,2,4.8,2,4.8,1,4.8
1981-08-29 06:05:36.540 ,7,0,0,4.8,0,4.8,0,4.8,0,4.8
1981-08-29 06:05:41.340 ,7,0,0,4.8,0,4.8,0,4.8,0,4.8
1981-08-29 06:05:46.140 ,7,0,0,4.8,0,4.8,0,4.8,0,4.8
1981-08-29 06:05:50.940 ,7,0,0,4.8,0,4.8,1,4.8,0,4.8
1981-08-29 06:05:55.740 ,7,0,0,4.8,0,4.8,0,4.8,0,4.8
1981-08-29 06:06:00.540 ,7,0,0,4.8,0,4.8,0,4.8,0,4.8
1981-08-29 06:06:05.340 ,7,0,0,4.8,0,4.8,0,4.8,0,4.8
1981-08-29 06:06:10.140 ,7,0,0,4.8,0,4.8,0,4.8,0,4.8
1981-08-29 06:06:14.940 ,7,0,0,4.8,0,4.8,0,4.8,0,4.8
1981-08-29 06:06:19.740 ,7,0,0,4.8,0,4.8,1,4.8,0,4.8
1981-08-29 06:06:24.540 ,7,0,0,4.8,1,4.8,0,4.8,0,4.8
1981-08-29 06:06:29.340 ,7,0,0,4.8,0,4.8,0,4.8,0,4.8
1981-08-29 06:06:34.140 ,7,0,0,4.8,0,4.8,0,4.8,0,4.8
1981-08-29 06:06:38.940 ,7,0,0,4.8,1,4.8,0,4.8,0,4.8
1981-08-29 06:06:43.740 ,7,0,0,4.8,1,4.8,0,4.8,0,4.8
1981-08-29 06:06:48.540 ,6,0,0,4.8,0,4.8,0,4.8,0,4.8
1981-08-29 06:06:53.340 ,6,0,0,4.8,1,4.8,0,4.8,1,4.8
1981-08-29 06:06:58.140 ,6,0,0,4.8,0,4.8,0,4.8,0,4.8
1981-08-29 06:07:02.940 ,6,0,0,4.8,0,4.8,1,4.8,0,4.8
1981-08-29 06:07:07.740 ,6,0,0,4.8,4,4.8,1,4.8,0,4.8
1981-08-29 06:07:12.540 ,5,0,0,4.8,1,4.8,0,4.8,0,4.8
1981-08-29 06:07:17.340 ,5,0,0,4.8,1,4.8,0,4.8,0,4.8
1981-08-29 06:07:22.140 ,5,0,0,4.8,1,4.8,0,4.8,0,4.8
1981-08-29 06:07:26.940 ,5,0,0,4.8,2,4.8,0,4.8,1,4.8
1981-08-29 06:07:31.740 ,5,0,0,4.8,1,4.8,0,4.8,0,4.8
1981-08-29 06:07:36.540 ,4,0,0,4.8,1,4.8,0,4.8,0,4.8
1981-08-29 06:07:41.340 ,4,0,0,4.8,3,4.8,1,4.8,0,4.8
1981-08-29 06:07:46.140 ,4,0,0,4.8,0,4.8,0,4.8,0,4.8
1981-08-29 06:07:50.940 ,4,0,0,4.8,2,4.8,0,4.8,0,4.8
1981-08-29 06:07:55.740 ,4,0,0,4.8,2,4.8,0,4.8,0,4.8
1981-08-29 06:08:00.540 ,3,0,0,4.8,0,4.8,0,4.8,0,4.8
1981-08-29 06:08:05.340 ,3,0,0,4.8,0,4.8,0,4.8,1,4.8
1981-08-29 06:08:10.140 ,3,0,0,4.8,1,4.8,0,4.8,0,4.8
1981-08-29 06:08:14.940 ,3,0,0,4.8,1,4.8,0,4.8,0,4.8
1981-08-29 06:08:19.740 ,3,0,0,4.8,1,4.8,0,4.8,0,4.8
1981-08-29 06:08:24.540 ,2,0,0,4.8,3,4.8,2,4.8,1,4.8
1981-08-29 06:08:29.340 ,2,0,0,4.8,1,4.8,0,4.8,0,4.8
1981-08-29 06:08:34.140 ,2,0,0,4.8,0,4.8,0,4.8,0,4.8
1981-08-29 06:08:38.940 ,2,0,0,4.8,2,4.8,1,4.8,0,4.8
1981-08-29 06:08:43.740 ,2,0,0,4.8,2,4.8,1,4.8,0,4.8
1981-08-29 06:08:48.540 ,1,0,0,4.8,1,4.8,0,4.8,0,4.8
1981-08-29 06:08:53.340 ,1,0,0,4.8,1,4.8,0,4.8,0,4.8
1981-08-29 06:08:58.140 ,1,0,0,4.8,3,4.8,1,4.8,0,4.8
1981-08-29 06:09:02.940 ,1,0,0,4.8,1,4.8,0,4.8,0,4.8
1981-08-29 06:09:07.740 ,1,0,0,4.8,1,4.8,1,4.8,0,4.8
1981-08-29 06:09:12.540 ,0,0,0,4.8,0,4.8,0,4.8,0,4.8
1981-08-29 06:09:17.340 ,0,0,0,4.8,0,4.8,0,4.8,0,4.8
1981-08-29 06:09:22.140 ,0,0,0,4.8,2,4.8,0,4.8,0,4.8
1981-08-29 06:09:26.940 ,0,0,0,4.8,1,4.8,0,4.8,0,4.8
1981-08-29 06:09:31.740 ,0,0,0,4.8,0,4.8,0,4.8,0,4.8
1981-08-29 06:09:36.540 ,0,0,0,4.8,2,4.8,1,4.8,0,4.8
1981-08-29 06:09:41.340 ,0,0,0,4.8,0,4.8,0,4.8,1,4.8
1981-08-29 06:09:46.140 ,0,0,0,4.8,2,4.8,0,4.8,0,4.8
1981-08-29 06:09:50.940 ,0,0,0,4.8,1,4.8,1,4.8,0,4.8
1981-08-29 06:09:55.740 ,0,0,0,4.8,1,4.8,0,4.8,0,4.8
1981-08-29 06:10:00.540 ,1,0,0,4.8,0,4.8,0,4.8,1,4.8
1981-08-29 06:10:05.340 ,1,0,0,4.8,0,4.8,1,4.8,0,4.8
1981-08-29 06:10:10.140 ,1,0,0,4.8,1,4.8,0,4.8,0,4.8
1981-08-29 06:10:14.940 ,1,0,0,4.8,0,4.8,0,4.8,0,4.8
1981-08-29 06:10:19.740 ,1,0,0,4.8,0,4.8,2,4.8,0,4.8
1981-08-29 06:10:24.540 ,2,0,0,4.8,0,4.8,0,4.8,0,4.8
1981-08-29 06:10:29.340 ,2,0,0,4.8,3,4.8,0,4.8,0,4.8
1981-08-29 06:10:34.140 ,2,0,0,4.8,1,4.8,0,4.8,1,4.8
1981-08-29 06:10:38.940 ,2,0,0,4.8,2,4.8,0,4.8,0,4.8
1981-08-29 06:10:43.740 ,2,0,0,4.8,0,4.8,1,4.8,0,4.8
1981-08-29 06:10:48.540 ,3,0,0,4.8,1,4.8,0,4.8,0,4.8
1981-08-29 06:10:53.340 ,3,0,0,4.8,0,4.8,0,4.8,0,4.8
1981-08-29 06:10:58.140 ,3,0,0,4.8,0,4.8,0,4.8,0,4.8
1981-08-29 06:11:02.940 ,3,0,0,4.8,1,4.8,0,4.8,0,4.8
1981-08-29 06:11:07.740 ,3,0,0,4.8,0,4.8,0,4.8,0,4.8
1981-08-29 06:11:12.540 ,4,0,0,4.8,2,4.8,0,4.8,0,4.8
1981-08-29 06:11:17.340 ,4,0,0,4.8,0,4.8,0,4.8,0,4.8
1981-08-29 06:11:22.140 ,4,0,0,4.8,2,4.8,0,4.8,0,4.8
1981-08-29 06:11:26.940 ,4,0,0,4.8,0,4.8,0,4.8,0,4.8
1981-08-29 06:11:31.740 ,4,0,0,4.8,2,4.8,0,4.8,0,4.8
1981-08-29 06:11:36.540 ,5,0,0,4.8,0,4.8,1,4.8,0,4.8
1981-08-29 06:11:41.340 ,5,0,0,4.8,0,4.8,0,4.8,1,4.8
1981-08-29 06:11:46.140 ,5,0,0,4.8,0,4.8,0,4.8,0,4.8
1981-08-29 06:11:50.940 ,5,0,0,4.8,0,4.8,0,4.8,0,4.8
1981-08-29 06:11:55.740 ,5,0,0,4.8,1,4.8,0,4.8,0,4.8
1981-08-29 06:12:00.540 ,6,0,0,4.8,1,4.8,0,4.8,0,4.8
1981-08-29 06:12:05.340 ,6,0,0,4.8,2,4.8,0,4.8,0,4.8
1981-08-29 06:12:10.140 ,6,0,0,4.8,2,4.8,0,4.8,0,4.8
1981-08-29 06:12:14.940 ,6,0,0,4.8,2,4.8,1,4.8,1,4.8
1981-08-29 06:12:19.740 ,6,0,0,4.8,1,4.8,0,4.8,0,4.8
1981-08-29 06:12:24.540 ,7,0,0,4.8,2,4.8,0,4.8,0,4.8
1981-08-29 06:12:29.340 ,7,0,0,4.8,0,4.8,0,4.8,0,4.8
1981-08-29 06:12:34.140 ,7,0,0,4.8,0,4.8,0,4.8,0,4.8
1981-08-29 06:12:38.940 ,7,0,0,4.8,1,4.8,0,4.8,1,4.8
1981-08-29 06:12:43.740 ,7,0,0,4.8,1,4.8,0,4.8,0,4.8
1981-08-29 06:12:48.540 ,7,0,0,4.8,0,4.8,0,4.8,0,4.8
1981-08-29 06:12:53.340 ,7,0,0,4.8,0,4.8,0,4.8,0,4.8
1981-08-29 06:12:58.140 ,7,0,0,4.8,0,4.8,0,4.8,0,4.8
1981-08-29 06:13:02.940 ,7,0,0,4.8,0,4.8,0,4.8,0,4.8
1981-08-29 06:13:07.740 ,7,0,0,4.8,2,4.8,0,4.8,0,4.8
1981-08-29 06:13:12.540 ,7,0,0,4.8,0,4.8,0,4.8,0,4.8
1981-08-29 06:13:17.340 ,7,0,0,4.8,1,4.8,0,4.8,0,4.8
1981-08-29 06:13:22.140 ,7,0,0,4.8,0,4.8,0,4.8,0,4.8
1981-08-29 06:13:26.940 ,7,0,0,4.8,0,4.8,0,4.8,0,4.8
1981-08-29 06:13:31.740 ,7,0,0,4.8,0,4.8,0,4.8,1,4.8
1981-08-29 06:13:36.540 ,6,0,0,4.8,0,4.8,0,4.8,0,4.8
1981-08-29 06:13:41.340 ,6,0,0,4.8,0,4.8,0,4.8,0,4.8
1981-08-29 06:13:46.140 ,6,0,0,4.8,1,4.8,0,4.8,0,4.8
1981-08-29 06:13:50.940 ,6,0,0,4.8,0,4.8,0,4.8,0,4.8
1981-08-29 06:13:55.740 ,6,0,0,4.8,1,4.8,0,4.8,0,4.8
1981-08-29 06:14:00.540 ,6,0,0,4.8,1,4.8,1,4.8,0,4.8
1981-08-29 06:14:05.340 ,6,0,0,4.8,0,4.8,1,4.8,0,4.8
1981-08-29 06:14:10.140 ,6,0,0,4.8,1,4.8,0,4.8,1,4.8
1981-08-29 06:14:14.940 ,6,0,0,4.8,2,4.8,0,4.8,0,4.8
1981-08-29 06:14:19.740 ,6,0,0,4.8,3,4.8,0,4.8,0,4.8
1981-08-29 06:14:24.540 ,5,0,0,4.8,0,4.8,1,4.8,1,4.8
1981-08-29 06:14:29.340 ,5,0,0,4.8,1,4.8,1,4.8,1,4.8
1981-08-29 06:14:34.140 ,5,0,0,4.8,1,4.8,0,4.8,0,4.8
1981-08-29 06:14:38.940 ,5,0,0,4.8,4,4.8,0,4.8,0,4.8
1981-08-29 06:14:43.740 ,5,0,0,4.8,3,4.8,0,4.8,0,4.8
1981-08-29 06:14:48.540 ,5,0,0,4.8,0,4.8,0,4.8,0,4.8
1981-08-29 06:14:53.340 ,5,0,0,4.8,1,4.8,1,4.8,0,4.8
1981-08-29 06:14:58.140 ,5,0,0,4.8,2,4.8,0,4.8,0,4.8
1981-08-29 06:15:02.940 ,5,0,0,4.8,0,4.8,0,4.8,0,4.8
1981-08-29 06:15:07.740 ,5,0,0,4.8,0,4.8,0,4.8,0,4.8
1981-08-29 06:15:12.540 ,4,0,0,4.8,1,4.8,0,4.8,0,4.8
1981-08-29 06:15:17.340 ,4,0,0,4.8,1,4.8,0,4.8,0,4.8
1981-08-29 06:15:22.140 ,4,0,0,4.8,0,4.8,0,4.8,0,4.8
1981-08-29 06:15:26.940 ,4,0,0,4.8,0,4.8,0,4.8,0,4.8
1981-08-29 06:15:31.740 ,4,0,0,4.8,2,4.8,0,4.8,1,4.8
1981-08-29 06:15:36.540 ,4,0,0,4.8,1,4.8,0,4.8,0,4.8
1981-08-29 06:15:41.340 ,4,0,0,4.8,1,4.8,0,4.8,0,4.8
1981-08-29 06:15:46.140 ,4,0,0,4.8,0,4.8,0,4.8,0,4.8
1981-08-29 06:15:50.940 ,4,0,0,4.8,3,4.8,1,4.8,0,4.8
1981-08-29 06:15:55.740 ,4,0,0,4.8,1,4.8,0,4.8,0,4.8
1981-08-29 06:16:00.540 ,3,0,0,4.8,1,4.8,0,4.8,0,4.8
1981-08-29 06:16:05.340 ,3,0,0,4.8,1,4.8,1,4.8,0,4.8
1981-08-29 06:16:10.140 ,3,0,0,4.8,0,4.8,0,4.8,0,4.8
1981-08-29 06:16:14.940 ,3,0,0,4.8,0,4.8,0,4.8,0,4.8
1981-08-29 06:16:19.740 ,3,0,0,4.8,2,4.8,1,4.8,0,4.8
1981-08-29 06:16:24.540 ,3,0,0,4.8,0,4.8,0,4.8,0,4.8
1981-08-29 06:16:29.340 ,3,0,0,4.8,0,4.8,0,4.8,0,4.8
1981-08-29 06:16:34.140 ,3,0,0,4.8,1,4.8,0,4.8,0,4.8
1981-08-29 06:16:38.940 ,3,0,0,4.8,2,4.8,0,4.8,0,4.8
1981-08-29 06:16:43.740 ,3,0,0,4.8,0,4.8,0,4.8,0,4.8
1981-08-29 06:16:48.540 ,2,0,0,4.8,1,4.8,0,4.8,0,4.8
1981-08-29 06:16:53.340 ,2,0,0,4.8,1,4.8,0,4.8,0,4.8
1981-08-29 06:16:58.140 ,2,0,0,4.8,4,4.8,0,4.8,0,4.8
1981-08-29 06:17:02.940 ,2,0,0,4.8,0,4.8,0,4.8,1,4.8
1981-08-29 06:17:07.740 ,2,0,0,4.8,0,4.8,1,4.8,0,4.8
1981-08-29 06:17:12.540 ,2,0,0,4.8,1,4.8,0,4.8,0,4.8
1981-08-29 06:17:17.340 ,2,0,0,4.8,2,4.8,0,4.8,0,4.8
1981-08-29 06:17:22.140 ,2,0,0,4.8,2,4.8,0,4.8,1,4.8
1981-08-29 06:17:26.940 ,2,0,0,4.8,1,4.8,0,4.8,0,4.8
1981-08-29 06:17:31.740 ,2,0,0,4.8,1,4.8,0,4.8,0,4.8
1981-08-29 06:17:36.540 ,1,0,0,4.8,0,4.8,0,4.8,1,4.8
1981-08-29 06:17:41.340 ,1,0,0,4.8,0,4.8,0,4.8,0,4.8
1981-08-29 06:17:46.140 ,1,0,0,4.8,2,4.8,0,4.8,0,4.8
1981-08-29 06:17:50.940 ,1,0,0,4.8,2,4.8,1,4.8,0,4.8
1981-08-29 06:17:55.740 ,1,0,0,4.8,1,4.8,0,4.8,0,4.8
1981-08-29 06:18:00.540 ,1,0,0,4.8,3,4.8,3,4.8,0,4.8
1981-08-29 06:18:05.340 ,1,0,0,4.8,1,4.8,0,4.8,0,4.8
1981-08-29 06:18:10.140 ,1,0,0,4.8,1,4.8,0,4.8,0,4.8
1981-08-29 06:18:14.940 ,1,0,0,4.8,1,4.8,0,4.8,0,4.8
1981-08-29 06:18:19.740 ,1,0,0,4.8,0,4.8,0,4.8,0,4.8
1981-08-29 06:18:24.540 ,0,0,0,4.8,1,4.8,0,4.8,0,4.8
1981-08-29 06:18:29.340 ,0,0,0,4.8,3,4.8,1,4.8,1,4.8
1981-08-29 06:18:34.140 ,0,0,0,4.8,1,4.8,0,4.8,0,4.8
1981-08-29 06:18:38.940 ,0,0,0,4.8,0,4.8,0,4.8,0,4.8
1981-08-29 06:18:43.740 ,0,0,0,4.8,1,4.8,0,4.8,0,4.8
1981-08-29 06:18:48.540 ,0,0,0,4.8,2,4.8,1,4.8,1,4.8
1981-08-29 06:18:53.340 ,0,0,0,4.8,4,4.8,0,4.8,0,4.8
1981-08-29 06:18:58.140 ,0,0,0,4.8,1,4.8,0,4.8,0,4.8
1981-08-29 06:19:02.940 ,0,0,0,4.8,2,4.8,1,4.8,0,4.8
1981-08-29 06:19:07.740 ,0,0,0,4.8,0,4.8,1,4.8,0,4.8
1981-08-29 06:19:12.540 ,0,0,0,4.8,1,4.8,0,4.8,0,4.8
1981-08-29 06:19:17.340 ,0,0,0,4.8,2,4.8,0,4.8,0,4.8
1981-08-29 06:19:22.140 ,0,0,0,4.8,3,4.8,0,4.8,0,4.8
1981-08-29 06:19:26.940 ,0,0,0,4.8,4,4.8,0,4.8,0,4.8
1981-08-29 06:19:31.740 ,0,0,0,4.8,2,4.8,0,4.8,0,4.8
1981-08-29 06:19:36.540 ,0,0,0,4.8,0,4.8,1,4.8,0,4.8
1981-08-29 06:19:41.340 ,0,0,0,4.8,1,4.8,0,4.8,0,4.8
1981-08-29 06:19:46.140 ,0,0,0,4.8,0,4.8,0,4.8,1,4.8
1981-08-29 06:19:50.940 ,0,0,0,4.8,1,4.8,1,4.8,0,4.8
1981-08-29 06:19:55.740 ,0,0,0,4.8,2,4.8,1,4.8,0,4.8
1981-08-29 06:20:00.540 ,1,0,0,4.8,2,4.8,0,4.8,0,4.8
1981-08-29 06:20:05.340 ,1,0,0,4.8,0,4.8,0,4.8,0,4.8
1981-08-29 06:20:10.140 ,1,0,0,4.8,2,4.8,0,4.8,0,4.8
1981-08-29 06:20:14.940 ,1,0,0,4.8,1,4.8,2,4.8,1,4.8
1981-08-29 06:20:19.740 ,1,0,0,4.8,3,4.8,0,4.8,1,4.8
1981-08-29 06:20:24.540 ,1,0,0,4.8,1,4.8,0,4.8,0,4.8
1981-08-29 06:20:29.340 ,1,0,0,4.8,0,4.8,0,4.8,0,4.8
1981-08-29 06:20:34.140 ,1,0,0,4.8,1,4.8,0,4.8,2,4.8
1981-08-29 06:20:38.940 ,1,0,0,4.8,2,4.8,0,4.8,0,4.8
1981-08-29 06:20:43.740 ,1,0,0,4.8,2,4.8,0,4.8,0,4.8
1981-08-29 06:20:48.540 ,2,0,0,4.8,0,4.8,0,4.8,0,4.8
1981-08-29 06:20:53.340 ,2,0,0,4.8,0,4.8,1,4.8,0,4.8
1981-08-29 06:20:58.140 ,2,0,0,4.8,2,4.8,1,4.8,0,4.8
1981-08-29 06:21:02.940 ,2,0,0,4.8,0,4.8,0,4.8,0,4.8
1981-08-29 06:21:07.740 ,2,0,0,4.8,0,4.8,0,4.8,0,4.8
1981-08-29 06:21:12.540 ,2,0,0,4.8,2,4.8,0,4.8,0,4.8
1981-08-29 06:21:17.340 ,2,0,0,4.8,1,4.8,0,4.8,0,4.8
1981-08-29 06:21:22.140 ,2,0,0,4.8,0,4.8,0,4.8,0,4.8
1981-08-29 06:21:26.940 ,2,0,0,4.8,1,4.8,0,4.8,0,4.8
1981-08-29 06:21:31.740 ,2,0,0,4.8,1,4.8,0,4.8,1,4.8
1981-08-29 06:21:36.540 ,3,0,0,4.8,0,4.8,0,4.8,0,4.8
1981-08-29 06:21:41.340 ,3,0,0,4.8,3,4.8,0,4.8,0,4.8
1981-08-29 06:21:46.140 ,3,0,0,4.8,2,4.8,0,4.8,1,4.8
1981-08-29 06:21:50.940 ,3,0,0,4.8,1,4.8,0,4.8,0,4.8
1981-08-29 06:21:55.740 ,3,0,0,4.8,0,4.8,0,4.8,0,4.8
1981-08-29 06:22:00.540 ,3,0,0,4.8,0,4.8,0,4.8,0,4.8
1981-08-29 06:22:05.340 ,3,0,0,4.8,2,4.8,0,4.8,0,4.8
1981-08-29 06:22:10.140 ,3,0,0,4.8,1,4.8,0,4.8,0,4.8
1981-08-29 06:22:14.940 ,3,0,0,4.8,2,4.8,1,4.8,0,4.8
1981-08-29 06:22:19.740 ,3,0,0,4.8,2,4.8,0,4.8,0,4.8
1981-08-29 06:22:24.540 ,4,0,0,4.8,2,4.8,0,4.8,0,4.8
1981-08-29 06:22:29.340 ,4,0,0,4.8,1,4.8,1,4.8,0,4.8
1981-08-29 06:22:34.140 ,4,0,0,4.8,1,4.8,0,4.8,0,4.8
1981-08-29 06:22:38.940 ,4,0,0,4.8,0,4.8,0,4.8,0,4.8
1981-08-29 06:22:43.740 ,4,0,0,4.8,1,4.8,0,4.8,0,4.8
1981-08-29 06:22:48.540 ,4,0,0,4.8,2,4.8,0,4.8,0,4.8
1981-08-29 06:22:53.340 ,4,0,0,4.8,2,4.8,0,4.8,0,4.8
1981-08-29 06:22:58.140 ,4,0,0,4.8,1,4.8,0,4.8,0,4.8
1981-08-29 06:23:02.940 ,4,0,0,4.8,1,4.8,0,4.8,0,4.8
1981-08-29 06:23:07.740 ,4,0,0,4.8,0,4.8,0,4.8,0,4.8
1981-08-29 06:23:12.540 ,5,0,0,4.8,0,4.8,0,4.8,0,4.8
1981-08-29 06:23:17.340 ,5,0,0,4.8,0,4.8,3,4.8,0,4.8
1981-08-29 06:23:22.140 ,5,0,0,4.8,2,4.8,0,4.8,0,4.8
1981-08-29 06:23:26.940 ,5,0,0,4.8,5,4.8,0,4.8,0,4.8
1981-08-29 06:23:31.740 ,5,0,0,4.8,0,4.8,1,4.8,0,4.8
1981-08-29 06:23:36.540 ,5,0,0,4.8,1,4.8,0,4.8,0,4.8
1981-08-29 06:23:41.340 ,5,0,0,4.8,0,4.8,0,4.8,0,4.8
1981-08-29 06:23:46.140 ,5,0,0,4.8,1,4.8,0,4.8,0,4.8
1981-08-29 06:23:50.940 ,5,0,0,4.8,1,4.8,1,4.8,0,4.8
1981-08-29 06:23:55.740 ,5,0,0,4.8,2,4.8,0,4.8,0,4.8
1981-08-29 06:24:00.540 ,6,0,0,4.8,0,4.8,1,4.8,0,4.8
1981-08-29 06:24:05.340 ,6,0,0,4.8,0,4.8,0,4.8,1,4.8
1981-08-29 06:24:10.140 ,6,0,0,4.8,1,4.8,0,4.8,0,4.8
1981-08-29 06:24:14.940 ,6,0,0,4.8,1,4.8,0,4.8,0,4.8
1981-08-29 06:24:19.740 ,6,0,0,4.8,1,4.8,0,4.8,1,4.8
1981-08-29 06:24:24.540 ,6,0,0,4.8,0,4.8,1,4.8,0,4.8
1981-08-29 06:24:29.340 ,6,0,0,4.8,1,4.8,1,4.8,0,4.8
1981-08-29 06:24:34.140 ,6,0,0,4.8,2,4.8,0,4.8,1,4.8
1981-08-29 06:24:38.940 ,6,0,0,4.8,1,4.8,1,4.8,0,4.8
1981-08-29 06:24:43.740 ,6,0,0,4.8,2,4.8,0,4.8,0,4.8
1981-08-29 06:24:48.540 ,7,0,0,4.8,0,4.8,2,4.8,0,4.8
1981-08-29 06:24:53.340 ,7,0,0,4.8,1,4.8,0,4.8,0,4.8
1981-08-29 06:24:58.140 ,7,0,0,4.8,0,4.8,0,4.8,0,4.8
1981-08-29 06:25:02.940 ,7,0,0,4.8,1,4.8,0,4.8,0,4.8
1981-08-29 06:25:07.740 ,7,0,0,4.8,0,4.8,0,4.8,0,4.8
1981-08-29 06:25:12.540 ,7,0,0,4.8,0,4.8,0,4.8,0,4.8
1981-08-29 06:25:17.340 ,7,0,0,4.8,0,4.8,0,4.8,0,4.8
1981-08-29 06:25:22.140 ,7,0,0,4.8,0,4.8,0,4.8,0,4.8
1981-08-29 06:25:26.940 ,7,0,0,4.8,0,4.8,0,4.8,0,4.8
1981-08-29 06:25:31.740 ,7,0,0,4.8,0,4.8,0,4.8,0,4.8
1981-08-29 06:25:36.540 ,7,0,0,4.8,0,4.8,0,4.8,0,4.8
1981-08-29 06:25:41.340 ,7,0,0,4.8,0,4.8,0,4.8,0,4.8
1981-08-29 06:25:46.140 ,7,0,0,4.8,1,4.8,0,4.8,0,4.8
1981-08-29 06:25:50.940 ,7,0,0,4.8,0,4.8,0,4.8,0,4.8
1981-08-29 06:25:55.740 ,7,0,0,4.8,0,4.8,0,4.8,0,4.8
1981-08-29 06:26:00.540 ,6,0,0,4.8,0,4.8,1,4.8,0,4.8
1981-08-29 06:26:05.340 ,6,0,0,4.8,1,4.8,0,4.8,0,4.8
1981-08-29 06:26:10.140 ,6,0,0,4.8,0,4.8,1,4.8,0,4.8
1981-08-29 06:26:14.940 ,6,0,0,4.8,1,4.8,3,4.8,0,4.8
1981-08-29 06:26:19.740 ,6,0,0,4.8,2,4.8,0,4.8,0,4.8
1981-08-29 06:26:24.540 ,5,0,0,4.8,0,4.8,1,4.8,1,4.8
1981-08-29 06:26:29.340 ,5,0,0,4.8,0,4.8,1,4.8,0,4.8
1981-08-29 06:26:34.140 ,5,0,0,4.8,1,4.8,0,4.8,0,4.8
1981-08-29 06:26:38.940 ,5,0,0,4.8,0,4.8,0,4.8,0,4.8
1981-08-29 06:26:43.740 ,5,0,0,4.8,0,4.8,0,4.8,0,4.8
1981-08-29 06:26:48.540 ,4,0,0,4.8,1,4.8,1,4.8,0,4.8
1981-08-29 06:26:53.340 ,4,0,0,4.8,0,4.8,0,4.8,0,4.8
1981-08-29 06:26:58.140 ,4,0,0,4.8,0,4.8,0,4.8,0,4.8
1981-08-29 06:27:02.940 ,4,0,0,4.8,4,4.8,0,4.8,0,4.8
1981-08-29 06:27:07.740 ,4,0,0,4.8,1,4.8,0,4.8,0,4.8
1981-08-29 06:27:12.540 ,3,0,0,4.8,0,4.8,1,4.8,1,4.8
1981-08-29 06:27:17.340 ,3,0,0,4.8,1,4.8,0,4.8,0,4.8
1981-08-29 06:27:22.140 ,3,0,0,4.8,2,4.8,0,4.8,0,4.8
1981-08-29 06:27:26.940 ,3,0,0,4.8,2,4.8,0,4.8,0,4.8
1981-08-29 06:27:31.740 ,3,0,0,4.8,0,4.8,0,4.8,0,4.8
1981-08-29 06:27:36.540 ,2,0,0,4.8,2,4.8,0,4.8,0,4.8
1981-08-29 06:27:41.340 ,2,0,0,4.8,0,4.8,0,4.8,0,4.8
1981-08-29 06:27:46.140 ,2,0,0,4.8,0,4.8,0,4.8,0,4.8
1981-08-29 06:27:50.940 ,2,0,0,4.8,1,4.8,0,4.8,0,4.8
1981-08-29 06:27:55.740 ,2,0,0,4.8,0,4.8,0,4.8,0,4.8
1981-08-29 06:28:00.540 ,1,0,0,4.8,2,4.8,0,4.8,0,4.8
1981-08-29 06:28:05.340 ,1,0,0,4.8,1,4.8,0,4.8,0,4.8
1981-08-29 06:28:10.140 ,1,0,0,4.8,1,4.8,1,4.8,0,4.8
1981-08-29 06:28:14.940 ,1,0,0,4.8,1,4.8,0,4.8,0,4.8
1981-08-29 06:28:19.740 ,1,0,0,4.8,0,4.8,0,4.8,0,4.8
1981-08-29 06:28:24.540 ,0,0,0,4.8,3,4.8,0,4.8,0,4.8
1981-08-29 06:28:29.340 ,0,0,0,4.8,0,4.8,1,4.8,0,4.8
1981-08-29 06:28:34.140 ,0,0,0,4.8,0,4.8,0,4.8,1,4.8
1981-08-29 06:28:38.940 ,0,0,0,4.8,0,4.8,0,4.8,1,4.8
1981-08-29 06:28:43.740 ,0,0,0,4.8,1,4.8,0,4.8,0,4.8
1981-08-29 06:28:48.540 ,0,0,0,4.8,1,4.8,1,4.8,0,4.8
1981-08-29 06:28:53.340 ,0,0,0,4.8,1,4.8,0,4.8,0,4.8
1981-08-29 06:28:58.140 ,0,0,0,4.8,1,4.8,0,4.8,0,4.8
1981-08-29 06:29:02.940 ,0,0,0,4.8,0,4.8,0,4.8,0,4.8
1981-08-29 06:29:07.740 ,0,0,0,4.8,1,4.8,0,4.8,0,4.8
1981-08-29 06:29:12.540 ,1,0,0,4.8,2,4.8,0,4.8,0,4.8
1981-08-29 06:29:17.340 ,1,0,0,4.8,1,4.8,0,4.8,0,4.8
1981-08-29 06:29:22.140 ,1,0,0,4.8,1,4.8,0,4.8,0,4.8
1981-08-29 06:29:26.940 ,1,0,0,4.8,0,4.8,0,4.8,0,4.8
1981-08-29 06:29:31.740 ,1,0,0,4.8,0,4.8,0,4.8,0,4.8
1981-08-29 06:29:36.540 ,2,0,0,4.8,1,4.8,1,4.8,0,4.8
1981-08-29 06:29:41.340 ,2,0,0,4.8,1,4.8,0,4.8,1,4.8
1981-08-29 06:29:46.140 ,2,0,0,4.8,1,4.8,0,4.8,0,4.8
1981-08-29 06:29:50.940 ,2,0,0,4.8,0,4.8,0,4.8,1,4.8
1981-08-29 06:29:55.740 ,2,0,0,4.8,1,4.8,0,4.8,0,4.8
1981-08-29 06:30:00.540 ,3,0,0,4.8,1,4.8,0,4.8,0,4.8
1981-08-29 06:30:05.340 ,3,0,0,4.8,1,4.8,0,4.8,0,4.8
1981-08-29 06:30:10.140 ,3,0,0,4.8,1,4.8,0,4.8,0,4.8
1981-08-29 06:30:14.940 ,3,0,0,4.8,1,4.8,0,4.8,0,4.8
1981-08-29 06:30:19.740 ,3,0,0,4.8,0,4.8,0,4.8,0,4.8
1981-08-29 06:30:24.540 ,4,0,0,4.8,1,4.8,0,4.8,0,4.8
1981-08-29 06:30:29.340 ,4,0,0,4.8,1,4.8,0,4.8,0,4.8
1981-08-29 06:30:34.140 ,4,0,0,4.8,0,4.8,0,4.8,0,4.8
1981-08-29 06:30:38.940 ,4,0,0,4.8,0,4.8,0,4.8,0,4.8
1981-08-29 06:30:43.740 ,4,0,0,4.8,1,4.8,1,4.8,0,4.8
1981-08-29 06:30:48.540 ,5,0,0,4.8,0,4.8,0,4.8,1,4.8
1981-08-29 06:30:53.340 ,5,0,0,4.8,0,4.8,0,4.8,0,4.8
1981-08-29 06:30:58.140 ,5,0,0,4.8,0,4.8,1,4.8,0,4.8
1981-08-29 06:31:02.940 ,5,0,0,4.8,3,4.8,0,4.8,0,4.8
1981-08-29 06:31:07.740 ,5,0,0,4.8,0,4.8,0,4.8,1,4.8
1981-08-29 06:31:12.540 ,6,0,0,4.8,2,4.8,0,4.8,0,4.8
1981-08-29 06:31:17.340 ,6,0,0,4.8,0,4.8,0,4.8,1,4.8
1981-08-29 06:31:22.140 ,6,0,0,4.8,2,4.8,1,4.8,0,4.8
1981-08-29 06:31:26.940 ,6,0,0,4.8,1,4.8,1,4.8,0,4.8
1981-08-29 06:31:31.740 ,6,0,0,4.8,1,4.8,0,4.8,0,4.8
1981-08-29 06:31:36.540 ,0,0,0,4.8,2,4.8,2,4.8,0,4.8
1981-08-29 06:31:41.340 ,0,0,0,4.8,0,4.8,0,4.8,0,4.8
1981-08-29 06:31:46.140 ,0,0,0,4.8,0,4.8,0,4.8,1,4.8
1981-08-29 06:31:50.940 ,0,0,0,4.8,1,4.8,0,4.8,0,4.8
1981-08-29 06:31:55.740 ,0,0,0,4.8,1,4.8,0,4.8,0,4.8
1981-08-29 06:32:27.540 ,0,0,,0,,0,,0,,0
1981-08-29 06:32:32.340 ,0,0,0,4.8,0,4.8,0,4.8,0,4.8
1981-08-29 06:32:37.140 ,0,0,0,4.8,0,4.8,0,4.8,0,4.8
1981-08-29 06:32:41.940 ,0,0,0,4.8,1,4.8,0,4.8,0,4.8
1981-08-29 06:32:46.740 ,0,0,0,4.8,0,4.8,0,4.8,0,4.8
1981-08-29 06:32:48.540 ,6,0,0,4.8,0,4.8,0,4.8,0,4.8
1981-08-29 06:32:53.340 ,6,0,0,4.8,0,4.8,0,4.8,0,4.8
1981-08-29 06:32:58.140 ,6,0,0,4.8,0,4.8,0,4.8,0,4.8
1981-08-29 06:33:02.940 ,6,0,0,4.8,1,4.8,1,4.8,1,4.8
1981-08-29 06:33:07.740 ,6,0,0,4.8,2,4.8,0,4.8,0,4.8
1981-08-29 06:33:12.540 ,6,0,0,4.8,1,4.8,1,4.8,0,4.8
1981-08-29 06:33:17.340 ,6,0,0,4.8,2,4.8,0,4.8,0,4.8
1981-08-29 06:33:22.140 ,6,0,0,4.8,1,4.8,1,4.8,0,4.8
1981-08-29 06:33:26.940 ,6,0,0,4.8,0,4.8,0,4.8,0,4.8
1981-08-29 06:33:31.740 ,6,0,0,4.8,1,4.8,0,4.8,0,4.8
1981-08-29 06:33:36.540 ,5,0,0,4.8,1,4.8,0,4.8,0,4.8
1981-08-29 06:33:41.340 ,5,0,0,4.8,2,4.8,0,4.8,0,4.8
1981-08-29 06:33:46.140 ,5,0,0,4.8,0,4.8,0,4.8,0,4.8
1981-08-29 06:33:50.940 ,5,0,0,4.8,1,4.8,0,4.8,0,4.8
1981-08-29 06:33:55.740 ,5,0,0,4.8,0,4.8,0,4.8,0,4.8
1981-08-29 06:34:00.540 ,5,0,0,4.8,1,4.8,0,4.8,1,4.8
1981-08-29 06:34:05.340 ,5,0,0,4.8,1,4.8,0,4.8,0,4.8
1981-08-29 06:34:10.140 ,5,0,0,4.8,0,4.8,0,4.8,0,4.8
1981-08-29 06:34:14.940 ,5,0,0,4.8,1,4.8,0,4.8,0,4.8
1981-08-29 06:34:19.740 ,5,0,0,4.8,1,4.8,0,4.8,0,4.8
1981-08-29 06:34:24.540 ,4,0,0,4.8,0,4.8,0,4.8,0,4.8
1981-08-29 06:34:29.340 ,4,0,0,4.8,2,4.8,0,4.8,0,4.8
1981-08-29 06:34:34.140 ,4,0,0,4.8,0,4.8,0,4.8,0,4.8
1981-08-29 06:34:38.940 ,4,0,0,4.8,0,4.8,0,4.8,0,4.8
1981-08-29 06:34:43.740 ,4,0,0,4.8,1,4.8,0,4.8,0,4.8
1981-08-29 06:34:48.540 ,4,0,0,4.8,1,4.8,0,4.8,0,4.8
1981-08-29 06:34:53.340 ,4,0,0,4.8,1,4.8,0,4.8,0,4.8
1981-08-29 06:34:58.140 ,4,0,0,4.8,1,4.8,0,4.8,0,4.8
1981-08-29 06:35:02.940 ,4,0,0,4.8,1,4.8,1,4.8,0,4.8
1981-08-29 06:35:07.740 ,4,0,0,4.8,3,4.8,0,4.8,0,4.8
1981-08-29 06:35:12.540 ,3,0,0,4.8,1,4.8,0,4.8,0,4.8
1981-08-29 06:35:17.340 ,3,0,0,4.8,0,4.8,1,4.8,0,4.8
1981-08-29 06:35:22.140 ,3,0,0,4.8,1,4.8,1,4.8,0,4.8
1981-08-29 06:35:26.940 ,3,0,0,4.8,1,4.8,0,4.8,0,4.8
1981-08-29 06:35:31.740 ,3,0,0,4.8,1,4.8,0,4.8,0,4.8
1981-08-29 06:35:36.540 ,3,0,0,4.8,0,4.8,0,4.8,1,4.8
1981-08-29 06:35:41.340 ,3,0,0,4.8,1,4.8,0,4.8,0,4.8
1981-08-29 06:35:46.140 ,3,0,0,4.8,1,4.8,0,4.8,0,4.8
1981-08-29 06:35:50.940 ,3,0,0,4.8,2,4.8,0,4.8,0,4.8
1981-08-29 06:35:55.740 ,3,0,0,4.8,1,4.8,0,4.8,0,4.8
1981-08-29 06:36:00.540 ,2,0,0,4.8,1,4.8,1,4.8,0,4.8
1981-08-29 06:36:05.340 ,2,0,0,4.8,1,4.8,0,4.8,0,4.8
1981-08-29 06:36:10.140 ,2,0,0,4.8,0,4.8,0,4.8,0,4.8